RYR1472 LEMD-LPFR

Flight info

Callsign RYR1472
Flight time 0h 59m
Altitude 37000
Route VTB2X VTB DCT INPAN DCT CRISA DCT HIJ DCT SVL DCT PIMUR N747 NAPES Y136 NIRAK NIRAK7A
Aircraft B738/M-SDE2E3FGHIRWXY/LB1

Departure

Time 2026-05-05 15:08
Airport Adolfo Suárez Madrid–Barajas Airport (LEMD)

Arrival

Time 2026-05-05 16:07
Airport Faro - Gago Coutinho International Airport (LPFR)
Time Latitude Longitude Altitude Speed Heading
2026-05-05 14:54 40.46289 -3.56917 1970 ft 0 kts 302°
2026-05-05 14:54 40.46287 -3.56915 1970 ft 0 kts 302°
2026-05-05 14:55 40.46282 -3.56904 1976 ft 2 kts 306°
2026-05-05 14:55 40.46272 -3.56886 1974 ft 2 kts 312°
2026-05-05 14:55 40.46260 -3.56871 1973 ft 2 kts 321°
2026-05-05 14:55 40.46246 -3.56859 1972 ft 2 kts 335°
2026-05-05 14:56 40.46230 -3.56852 1972 ft 2 kts 355°
2026-05-05 14:56 40.46214 -3.56854 1970 ft 2 kts 15°
2026-05-05 14:56 40.46199 -3.56861 1972 ft 2 kts 30°
2026-05-05 14:56 40.46193 -3.56866 1975 ft 0 kts 34°
2026-05-05 15:00 40.46205 -3.56852 1970 ft 4 kts 48°
2026-05-05 15:00 40.46217 -3.56813 1970 ft 9 kts 79°
2026-05-05 15:00 40.46219 -3.56698 1974 ft 10 kts 90°
2026-05-05 15:00 40.46258 -3.56603 1974 ft 18 kts 16°
2026-05-05 15:01 40.46404 -3.56589 1972 ft 24 kts
2026-05-05 15:01 40.46583 -3.56576 1972 ft 28 kts
2026-05-05 15:01 40.46787 -3.56560 1973 ft 30 kts
2026-05-05 15:01 40.46994 -3.56548 1977 ft 29 kts 357°
2026-05-05 15:02 40.47171 -3.56653 1980 ft 27 kts 322°
2026-05-05 15:02 40.47317 -3.56798 1987 ft 26 kts 323°
2026-05-05 15:02 40.47455 -3.56935 1990 ft 24 kts 321°
2026-05-05 15:02 40.47581 -3.57066 1994 ft 23 kts 322°
2026-05-05 15:03 40.47719 -3.57206 1998 ft 27 kts 322°
2026-05-05 15:03 40.47872 -3.57364 2004 ft 28 kts 321°
2026-05-05 15:03 40.48043 -3.57538 2000 ft 32 kts 322°
2026-05-05 15:03 40.48218 -3.57713 1995 ft 31 kts 322°
2026-05-05 15:04 40.48387 -3.57877 1990 ft 30 kts 327°
2026-05-05 15:04 40.48556 -3.58018 2000 ft 28 kts 328°
2026-05-05 15:04 40.48730 -3.58044 2002 ft 21 kts 20°
2026-05-05 15:04 40.48802 -3.57928 1998 ft 10 kts
2026-05-05 15:05 40.48935 -3.57821 1994 ft 16 kts 359°
2026-05-05 15:05 40.49062 -3.57821 1993 ft 20 kts 357°
2026-05-05 15:05 40.49171 -3.57755 1991 ft 20 kts 89°
2026-05-05 15:06 40.49180 -3.57600 1988 ft 16 kts 66°
2026-05-05 15:06 40.49233 -3.57475 1984 ft 16 kts 37°
2026-05-05 15:06 40.49300 -3.57423 1982 ft 0 kts
2026-05-05 15:06 40.49301 -3.57450 1982 ft 0 kts
2026-05-05 15:07 40.49308 -3.57450 1982 ft 2 kts
2026-05-05 15:07 40.49482 -3.57450 1986 ft 65 kts 360°
2026-05-05 15:07 40.50216 -3.57456 1988 ft 143 kts 360°
2026-05-05 15:07 40.51412 -3.57470 2204 ft 192 kts 357°
2026-05-05 15:08 40.52785 -3.57448 3188 ft 204 kts 356°
2026-05-05 15:08 40.54256 -3.57441 3995 ft 221 kts 355°
2026-05-05 15:08 40.55840 -3.57470 4896 ft 228 kts 355°
2026-05-05 15:08 40.57423 -3.57495 5958 ft 230 kts 355°
2026-05-05 15:09 40.59049 -3.57514 7078 ft 234 kts 355°
2026-05-05 15:09 40.60695 -3.57172 8026 ft 247 kts 19°
2026-05-05 15:09 40.62246 -3.56223 9008 ft 252 kts 21°
2026-05-05 15:09 40.63886 -3.55340 9850 ft 260 kts
2026-05-05 15:10 40.65738 -3.55535 10183 ft 279 kts 338°
2026-05-05 15:10 40.67744 -3.56095 10413 ft 316 kts 357°
2026-05-05 15:10 40.70049 -3.55950 10661 ft 346 kts 360°
2026-05-05 15:10 40.72515 -3.55838 11299 ft 355 kts 357°
2026-05-05 15:11 40.74860 -3.55951 13360 ft 313 kts 352°
2026-05-05 15:11 40.76867 -3.56281 15464 ft 274 kts 341°
2026-05-05 15:11 40.78455 -3.57422 16560 ft 259 kts 311°
2026-05-05 15:11 40.79345 -3.59512 16842 ft 274 kts 279°
2026-05-05 15:12 40.79187 -3.62080 17059 ft 295 kts 252°
2026-05-05 15:12 40.78617 -3.64788 17247 ft 316 kts 262°
2026-05-05 15:12 40.78145 -3.67715 17410 ft 338 kts 257°
2026-05-05 15:12 40.77534 -3.70803 17559 ft 358 kts 256°
2026-05-05 15:13 40.76826 -3.74044 17689 ft 378 kts 249°
2026-05-05 15:13 40.75388 -3.77024 17931 ft 397 kts 229°
2026-05-05 15:13 40.73185 -3.79304 18407 ft 410 kts 210°
2026-05-05 15:13 40.70457 -3.80456 18996 ft 419 kts 190°
2026-05-05 15:14 40.67529 -3.80253 19575 ft 430 kts 169°
2026-05-05 15:14 40.64688 -3.79140 20081 ft 435 kts 166°
2026-05-05 15:14 40.61729 -3.77960 20520 ft 438 kts 171°
2026-05-05 15:14 40.58721 -3.77525 21041 ft 432 kts 186°
2026-05-05 15:15 40.55808 -3.77987 21570 ft 426 kts 198°
2026-05-05 15:15 40.52990 -3.79184 22048 ft 424 kts 206°
2026-05-05 15:15 40.50196 -3.80593 22496 ft 426 kts 206°
2026-05-05 15:15 40.48362 -3.81525 22783 ft 428 kts 207°
2026-05-05 15:16 40.44672 -3.83392 23351 ft 431 kts 207°
2026-05-05 15:16 40.42773 -3.84343 23632 ft 432 kts 207°
2026-05-05 15:16 40.39938 -3.85751 23984 ft 434 kts 207°
2026-05-05 15:16 40.36192 -3.87594 24441 ft 436 kts 207°
2026-05-05 15:17 40.34264 -3.88538 24674 ft 437 kts 208°
2026-05-05 15:17 40.31441 -3.89917 25017 ft 438 kts 208°
2026-05-05 15:17 40.28579 -3.91311 25336 ft 439 kts 208°
2026-05-05 15:17 40.25712 -3.92707 25645 ft 441 kts 208°
2026-05-05 15:18 40.22834 -3.94108 25925 ft 443 kts 208°
2026-05-05 15:18 40.19938 -3.95516 26216 ft 444 kts 208°
2026-05-05 15:18 40.17033 -3.96927 26520 ft 445 kts 209°
2026-05-05 15:18 40.14133 -3.98334 26772 ft 446 kts 209°
2026-05-05 15:19 40.11221 -3.99747 27019 ft 448 kts 209°
2026-05-05 15:19 40.08297 -4.01163 27286 ft 449 kts 209°
2026-05-05 15:19 40.05368 -4.02581 27604 ft 449 kts 209°
2026-05-05 15:19 40.02440 -4.03994 27997 ft 446 kts 210°
2026-05-05 15:20 39.99546 -4.05388 28429 ft 442 kts 210°
2026-05-05 15:20 39.96657 -4.06779 28841 ft 440 kts 210°
2026-05-05 15:20 39.93790 -4.08161 29159 ft 439 kts 210°
2026-05-05 15:20 39.90935 -4.09538 29475 ft 438 kts 210°
2026-05-05 15:21 39.88076 -4.10915 29870 ft 436 kts 210°
2026-05-05 15:21 39.85245 -4.12276 30246 ft 433 kts 210°
2026-05-05 15:21 39.82418 -4.13636 30460 ft 433 kts 210°
2026-05-05 15:21 39.79594 -4.14995 30655 ft 434 kts 210°
2026-05-05 15:22 39.76764 -4.16355 30908 ft 433 kts 210°
2026-05-05 15:22 39.73976 -4.17691 31178 ft 432 kts 209°
2026-05-05 15:22 39.71160 -4.19040 31422 ft 431 kts 209°
2026-05-05 15:22 39.68347 -4.20386 31630 ft 432 kts 209°
2026-05-05 15:23 39.65492 -4.21752 31827 ft 432 kts 209°
2026-05-05 15:23 39.62705 -4.23084 32068 ft 431 kts 209°
2026-05-05 15:23 39.59892 -4.24426 32330 ft 430 kts 209°
2026-05-05 15:23 39.57087 -4.25763 32555 ft 430 kts 209°
2026-05-05 15:24 39.54278 -4.27102 32754 ft 430 kts 209°
2026-05-05 15:24 39.51474 -4.28436 32988 ft 429 kts 209°
2026-05-05 15:24 39.48665 -4.29772 33250 ft 428 kts 208°
2026-05-05 15:24 39.45877 -4.31097 33493 ft 427 kts 208°
2026-05-05 15:25 39.43084 -4.32423 33726 ft 426 kts 208°
2026-05-05 15:25 39.40308 -4.33740 33945 ft 426 kts 209°
2026-05-05 15:25 39.37516 -4.35064 34114 ft 425 kts 208°
2026-05-05 15:25 39.34739 -4.36379 34308 ft 425 kts 208°
2026-05-05 15:26 39.31967 -4.37691 34466 ft 425 kts 208°
2026-05-05 15:26 39.29187 -4.39006 34609 ft 425 kts 208°
2026-05-05 15:26 39.26414 -4.40317 34776 ft 425 kts 208°
2026-05-05 15:26 39.23674 -4.41610 34944 ft 424 kts 208°
2026-05-05 15:27 39.20902 -4.42918 35083 ft 424 kts 208°
2026-05-05 15:27 39.18125 -4.44228 35201 ft 425 kts 208°
2026-05-05 15:27 39.15356 -4.45531 35395 ft 424 kts 208°
2026-05-05 15:27 39.12586 -4.46834 35556 ft 424 kts 208°
2026-05-05 15:28 39.09819 -4.48135 35692 ft 424 kts 208°
2026-05-05 15:28 39.07041 -4.49440 35849 ft 423 kts 208°
2026-05-05 15:28 39.04277 -4.50738 35996 ft 423 kts 208°
2026-05-05 15:29 38.98733 -4.53337 36232 ft 424 kts 208°
2026-05-05 15:29 38.96011 -4.54769 36377 ft 417 kts 214°
2026-05-05 15:29 38.93521 -4.56638 36507 ft 411 kts 221°
2026-05-05 15:29 38.91269 -4.58847 36618 ft 405 kts 229°
2026-05-05 15:30 38.89290 -4.61332 36764 ft 403 kts 230°
2026-05-05 15:30 38.87308 -4.63880 36886 ft 403 kts 230°
2026-05-05 15:30 38.85322 -4.66438 36955 ft 404 kts 230°
2026-05-05 15:31 38.81313 -4.71568 36984 ft 409 kts 230°
2026-05-05 15:31 38.77247 -4.76729 36983 ft 413 kts 230°
2026-05-05 15:32 38.73144 -4.81914 36983 ft 415 kts 230°
2026-05-05 15:32 38.69014 -4.87122 36979 ft 417 kts 230°
2026-05-05 15:33 38.64879 -4.92328 36968 ft 418 kts 230°
2026-05-05 15:33 38.60732 -4.97544 36971 ft 418 kts 230°
2026-05-05 15:34 38.56576 -5.02762 36977 ft 419 kts 230°
2026-05-05 15:34 38.52392 -5.07955 36975 ft 421 kts 226°
2026-05-05 15:35 38.47517 -5.12162 36975 ft 433 kts 213°
2026-05-05 15:35 38.42083 -5.15501 36970 ft 434 kts 212°
2026-05-05 15:36 38.36630 -5.18827 36964 ft 433 kts 212°
2026-05-05 15:36 38.31308 -5.22093 36955 ft 418 kts 212°
2026-05-05 15:37 38.26095 -5.25315 36958 ft 414 kts 213°
2026-05-05 15:37 38.20925 -5.28515 36957 ft 412 kts 212°
2026-05-05 15:38 38.15768 -5.31701 36955 ft 411 kts 212°
2026-05-05 15:38 38.10621 -5.34874 36970 ft 411 kts 212°
2026-05-05 15:39 38.05452 -5.38055 36965 ft 413 kts 212°
2026-05-05 15:39 38.00297 -5.41221 36974 ft 415 kts 212°
2026-05-05 15:40 37.95082 -5.44420 36995 ft 420 kts 212°
2026-05-05 15:40 37.89793 -5.47659 36989 ft 423 kts 212°
2026-05-05 15:41 37.84519 -5.50878 36983 ft 419 kts 212°
2026-05-05 15:41 37.79290 -5.54066 36980 ft 416 kts 212°
2026-05-05 15:42 37.74077 -5.57242 36977 ft 414 kts 212°
2026-05-05 15:42 37.68892 -5.60398 36984 ft 413 kts 212°
2026-05-05 15:43 37.63701 -5.63552 36989 ft 414 kts 212°
2026-05-05 15:43 37.58507 -5.66709 37006 ft 421 kts 211°
2026-05-05 15:44 37.53207 -5.69915 36996 ft 422 kts 211°
2026-05-05 15:44 37.50550 -5.71519 36834 ft 423 kts 211°
2026-05-05 15:44 37.47913 -5.73111 36557 ft 421 kts 211°
2026-05-05 15:44 37.45464 -5.74950 36046 ft 410 kts 226°
2026-05-05 15:45 37.43563 -5.77547 35575 ft 399 kts 237°
2026-05-05 15:45 37.42155 -5.80541 34875 ft 397 kts 249°
2026-05-05 15:45 37.41312 -5.83838 34240 ft 397 kts 257°
2026-05-05 15:45 37.40696 -5.87207 33524 ft 398 kts 258°
2026-05-05 15:46 37.40116 -5.90633 32780 ft 399 kts 258°
2026-05-05 15:46 37.39543 -5.94055 32083 ft 400 kts 258°
2026-05-05 15:46 37.38959 -5.97485 31355 ft 401 kts 258°
2026-05-05 15:46 37.38360 -6.00919 30629 ft 402 kts 257°
2026-05-05 15:47 37.37751 -6.04358 29854 ft 404 kts 257°
2026-05-05 15:47 37.37342 -6.06639 29281 ft 404 kts 257°
2026-05-05 15:47 37.36514 -6.11231 28463 ft 399 kts 257°
2026-05-05 15:47 37.35901 -6.14619 27884 ft 395 kts 257°
2026-05-05 15:48 37.35292 -6.17973 27308 ft 392 kts 257°
2026-05-05 15:48 37.34689 -6.21288 26759 ft 388 kts 257°
2026-05-05 15:48 37.34090 -6.24579 26213 ft 386 kts 257°
2026-05-05 15:48 37.33485 -6.27899 25682 ft 395 kts 258°
2026-05-05 15:49 37.32862 -6.31312 25129 ft 406 kts 258°
2026-05-05 15:49 37.32231 -6.34763 24547 ft 404 kts 258°
2026-05-05 15:49 37.31611 -6.38144 23968 ft 401 kts 258°
2026-05-05 15:49 37.30984 -6.41561 23350 ft 398 kts 258°
2026-05-05 15:50 37.30366 -6.44926 22725 ft 395 kts 258°
2026-05-05 15:50 37.29751 -6.48267 22136 ft 391 kts 258°
2026-05-05 15:50 37.29139 -6.51584 21584 ft 387 kts 258°
2026-05-05 15:50 37.28534 -6.54889 20830 ft 388 kts 258°
2026-05-05 15:51 37.27936 -6.58196 20087 ft 390 kts 258°
2026-05-05 15:51 37.27337 -6.61506 19469 ft 388 kts 258°
2026-05-05 15:51 37.26741 -6.64794 18923 ft 385 kts 258°
2026-05-05 15:51 37.26148 -6.68058 18359 ft 380 kts 258°
2026-05-05 15:52 37.25564 -6.71265 17484 ft 374 kts 258°
2026-05-05 15:52 37.24993 -6.74390 16915 ft 369 kts 258°
2026-05-05 15:52 37.24418 -6.77518 16272 ft 369 kts 258°
2026-05-05 15:52 37.23822 -6.80700 15645 ft 369 kts 258°
2026-05-05 15:53 37.23233 -6.83815 15098 ft 366 kts 258°
2026-05-05 15:53 37.22644 -6.86928 14594 ft 364 kts 258°
2026-05-05 15:53 37.22073 -6.89943 14092 ft 361 kts 258°
2026-05-05 15:53 37.21497 -6.92993 13568 ft 359 kts 258°
2026-05-05 15:54 37.20920 -6.96038 13010 ft 357 kts 258°
2026-05-05 15:54 37.20347 -6.99053 12496 ft 354 kts 258°
2026-05-05 15:54 37.19906 -7.02068 12001 ft 350 kts 266°
2026-05-05 15:54 37.19855 -7.05107 11464 ft 347 kts 275°
2026-05-05 15:55 37.20179 -7.08080 11013 ft 342 kts 280°
2026-05-05 15:55 37.20559 -7.10969 10878 ft 329 kts 280°
2026-05-05 15:55 37.20928 -7.13752 10730 ft 318 kts 280°
2026-05-05 15:55 37.21281 -7.16451 10572 ft 309 kts 280°
2026-05-05 15:56 37.21620 -7.19071 10456 ft 299 kts 280°
2026-05-05 15:56 37.21942 -7.21604 10314 ft 290 kts 280°
2026-05-05 15:56 37.22253 -7.24067 10211 ft 282 kts 280°
2026-05-05 15:56 37.22554 -7.26454 10094 ft 274 kts 280°
2026-05-05 15:57 37.22845 -7.28788 9939 ft 268 kts 280°
2026-05-05 15:57 37.23134 -7.31100 9625 ft 268 kts 280°
2026-05-05 15:57 37.23423 -7.33414 9345 ft 268 kts 281°
2026-05-05 15:57 37.23708 -7.35693 9049 ft 267 kts 281°
2026-05-05 15:58 37.23996 -7.38020 8762 ft 267 kts 281°
2026-05-05 15:58 37.24268 -7.40323 8454 ft 267 kts 276°
2026-05-05 15:58 37.24001 -7.42595 8147 ft 272 kts 250°
2026-05-05 15:58 37.22941 -7.44580 7823 ft 279 kts 226°
2026-05-05 15:59 37.21466 -7.46126 7561 ft 280 kts 220°
2026-05-05 15:59 37.19906 -7.47641 7256 ft 281 kts 220°
2026-05-05 15:59 37.18355 -7.49135 6955 ft 281 kts 220°
2026-05-05 15:59 37.16807 -7.50631 6688 ft 282 kts 220°
2026-05-05 16:00 37.15259 -7.52139 6342 ft 283 kts 220°
2026-05-05 16:00 37.13713 -7.53651 6044 ft 281 kts 220°
2026-05-05 16:00 37.12173 -7.55161 5744 ft 280 kts 220°
2026-05-05 16:00 37.10642 -7.56664 5444 ft 279 kts 220°
2026-05-05 16:01 37.09126 -7.58154 5167 ft 277 kts 220°
2026-05-05 16:01 37.07605 -7.59649 4882 ft 274 kts 220°
2026-05-05 16:01 37.06126 -7.61101 4593 ft 267 kts 220°
2026-05-05 16:01 37.05169 -7.62042 4396 ft 263 kts 220°
2026-05-05 16:02 37.03737 -7.63449 4156 ft 261 kts 220°
2026-05-05 16:02 37.02313 -7.64847 4043 ft 260 kts 220°
2026-05-05 16:02 37.00434 -7.66689 4005 ft 254 kts 220°
2026-05-05 16:02 36.99529 -7.67615 3983 ft 245 kts 228°
2026-05-05 16:03 36.98706 -7.69343 4000 ft 223 kts 258°
2026-05-05 16:03 36.98517 -7.71196 3997 ft 211 kts 274°
2026-05-05 16:03 36.98551 -7.73039 4020 ft 214 kts 276°
2026-05-05 16:03 36.98605 -7.74914 3924 ft 219 kts 275°
2026-05-05 16:04 36.98681 -7.76895 3146 ft 236 kts 279°
2026-05-05 16:04 36.98934 -7.78941 2704 ft 235 kts 283°
2026-05-05 16:04 36.99222 -7.80891 2432 ft 221 kts 283°
2026-05-05 16:04 36.99480 -7.82715 2149 ft 206 kts 281°
2026-05-05 16:05 36.99731 -7.84410 1864 ft 189 kts 285°
2026-05-05 16:05 36.99954 -7.86003 1577 ft 179 kts 282°
2026-05-05 16:05 37.00161 -7.87518 1353 ft 176 kts 282°
2026-05-05 16:05 37.00374 -7.89022 1139 ft 175 kts 282°
2026-05-05 16:06 37.00580 -7.90481 900 ft 164 kts 281°
2026-05-05 16:06 37.00765 -7.91815 662 ft 148 kts 278°
2026-05-05 16:06 37.00936 -7.92970 537 ft 124 kts 278°
2026-05-05 16:06 37.01084 -7.93983 300 ft 110 kts 276°
2026-05-05 16:07 37.01207 -7.94908 169 ft 109 kts 276°
2026-05-05 16:07 37.01348 -7.95870 48 ft 113 kts 277°
2026-05-05 16:07 37.01466 -7.96760 24 ft 83 kts 279°
2026-05-05 16:07 37.01527 -7.97199 20 ft 26 kts 280°
2026-05-05 16:08 37.01559 -7.97415 18 ft 24 kts 281°
2026-05-05 16:08 37.01586 -7.97616 19 ft 23 kts 279°
2026-05-05 16:08 37.01617 -7.97809 21 ft 22 kts 292°
2026-05-05 16:08 37.01727 -7.97798 19 ft 13 kts 57°
2026-05-05 16:09 37.01738 -7.97773 19 ft 0 kts 62°
2026-05-05 16:10 37.01740 -7.97769 19 ft 2 kts 62°
2026-05-05 16:10 37.01759 -7.97708 22 ft 13 kts 76°
2026-05-05 16:10 37.01763 -7.97555 19 ft 22 kts 99°
2026-05-05 16:11 37.01734 -7.97342 19 ft 26 kts 98°
2026-05-05 16:11 37.01777 -7.96892 19 ft 16 kts 11°
2026-05-05 16:12 37.01870 -7.96919 19 ft 8 kts 351°
2026-05-05 16:12 37.01927 -7.96913 20 ft 0 kts
2026-05-05 16:13 37.01930 -7.96913 20 ft 0 kts